COSMOS 2251 DEB, 33828

Orbit data source: Space-Track

COSMOS 2251 DEB, 33828 is space debris in LEO originally from a launch on Wed, 16 Jun 1993 UTC launched from the Plesetsk Missile And Space Complex (PKMTR). The debris from Iridium 33, an American commercial communications satellite, has been tracked extensively since its accidental collision with the defunct Russian satellite Cosmos 2251 in 2009. This event, occurring at high speed in low Earth orbit (LEO), generated thousands of pieces of space debris, significantly increasing the risk of further collisions. The Iridium 33 debris cloud has impacted space traffic management and orbital debris mitigation strategies, making it a subject of ongoing study in space situational awareness.

Loading next visibility...
Identifier
33828, 1993-036BV
Orbit
LEO
Country
Flag of CISCIS
Related business
Manufacturer
Unknown
Mission
Spacecraft
Bus & Motor
Unknown
Mass
Unknown
Launch date (UTC)
1993-06-16 (33 years ago)
Launch vehicle
Unknown
Launch site
Plesetsk Missile And Space Complex (PKMTR)
Object type
Payload
Rocket body
Debris
Shape & HBR
Unknown shape, 0.2 m
Radar Cross Section
Medium (>0.1 m² and <1 m²)

Expand to show TLE details & history
Last TLE update: 7 hours ago

TLE from 7 hours ago
0 COSMOS 2251 DEB
1 33828U 93036BV  26178.27153874  .00000908  00000-0  26702-3 0  9993
2 33828  74.0452 232.4324 0029831 260.4172 171.0799 14.44901608911511
Epoch: 2026-06-27T06:31Z
TLE epoch observation values (Epoch: 2026-06-27T06:31:00.947Z)
Latitude
65.88871°
Longitude
-101.26139°
Altitude
774.365 km
Speed
7.462 km/s
True Right ascension
18h 07m 31s
True Declination
65° 45' 38"
Sunlit
Object was in daylight at epoch
Visualization orbit readout
Latitude
Unknown
Longitude
Unknown
Altitude
Unknown
Speed
Unknown
Apparent Right ascension
Unknown
Apparent Declination
Unknown
Sunlit
N/A
Visualization observer readout
Local Sidereal Time
00:36:17
Azimuth
Unknown
Elevation
Unknown
Doppler factor
Unknown
Orbital elements
Apogee altitude
761.197 km
Perigee altitude
718.729 km
Semi-major axis
7,118.1 km
Eccentricity
0.00298
Inclination
74.0452°
RAAN
232.4324°
Arg. of periapsis
260.4172°
True anomaly
171.13271°
Mean anomaly
171.0799°
Eccentric anomaly
171.10632°
Mean motion
3.61407 °/min
Orbital period
99.61 mins
BSTAR
0.00026702

Documentation

Showing up to 5 results
|